Regional Weather Roundup
Issued by NWS

Home | Current Version | Previous Version | Graphics & Text | Print | Product List | Glossary On
Versions: 1 2 3 4 5 6 7 8 9 10 11 12 13 14 15 16 17 18 19 20 21 22 23 24 25 26 27 28 29 30 31 32 33 34 35 36 37 38 39 40 41 42 43 44 45 46 47 48 49 50
000
ASUS43 KLSX 262359
RWRMO

WEATHER SUMMARY FOR MISSOURI
NATIONAL WEATHER SERVICE SPRINGFIELD MO
600 PM CST WED NOV 26 2014

NOTE: "FAIR" INDICATES FEW OR NO CLOUDS BELOW 12,000 FEET WITH NO
       SIGNIFICANT WEATHER AND/OR OBSTRUCTIONS TO VISIBILITY.
       CURRENT SKY AND/OR WEATHER CONDITIONS ARE NOT AVAILABLE FOR
       CHILLICOTHE AND FARMINGTON.

MOZ001>031-035>038-043-044-053-054-270100-
...NORTHERN AND WESTERN MISSOURI...

CITY           SKY/WX    TMP DP  RH WIND       PRES   REMARKS
KANSAS CTY INT CLOUDY    31  24  75 NW18G31   30.21R WCI  19
6HR MIN TEMP:  31; 6HR MAX TEMP:  40;

KANSAS C DTWN  FLURRIES  34  24  67 NW18G29   30.21R WCI  23
6HR MIN TEMP:  34; 6HR MAX TEMP:  42; 6HR PCP: TRACE;

LEE`S SUMMIT   CLOUDY    32  25  75 NW16G29   30.19R WCI  21
6HR MIN TEMP:  32; 6HR MAX TEMP:  41;

ST JOSEPH      CLOUDY    31  23  72 NW21G30   30.25R WCI  18
6HR MIN TEMP:  31; 6HR MAX TEMP:  38;

CHILLICOTHE      N/A     32  28  85 NW14G23   30.15R WCI  22
6HR MIN TEMP:  32; 6HR MAX TEMP:  40;

KIRKSVILLE     LGT SNOW  32  31  96 N9        30.08R FOG     WCI  24
6HR MIN TEMP:  32; 6HR MAX TEMP:  34; 6HR PCP:  0.02;


$$
MOZ066>068-077>081-088>096-101>105-270100-
...SOUTHWEST MISSOURI...

CITY           SKY/WX    TMP DP  RH WIND       PRES   REMARKS
SPRINGFIELD    CLOUDY    41  26  55 NW18G32   30.12R
6HR MIN TEMP:  41; 6HR MAX TEMP:  46; 6HR PCP: TRACE;

JOPLIN         MOCLDY    40  26  57 NW15      30.22R
6HR MIN TEMP:  39; 6HR MAX TEMP:  48;


$$
MOZ032>034-039>042-045>050-055>058-069>072-270100-
...CENTRAL MISSOURI...

CITY           SKY/WX    TMP DP  RH WIND       PRES   REMARKS
COLUMBIA       LGT RAIN  36  33  89 NW17G23   30.06R WCI  26
6HR MIN TEMP:  36; 6HR MAX TEMP:  41; 6HR PCP:  0.04;

JEFFERSON CITY CLOUDY    38  33  82 W18G26    30.07R WCI  28
6HR MIN TEMP:  38; 6HR MAX TEMP:  42; 6HR PCP:  0.04;

ROLLA          MIX PCPN  37  33  85 W9        30.03R
6HR MIN TEMP:  33; 6HR MAX TEMP:  39; 6HR PCP:  0.02;

SEDALIA        CLOUDY    35  31  85 NW20G32   30.13R WCI  24
6HR MIN TEMP:  35; 6HR MAX TEMP:  43; 6HR PCP: TRACE;

WHITEMAN AFB   CLOUDY    34  28  80 NW16G31   30.14R WCI  23
WARRENSBURG    CLOUDY    34  28  80 NW18G26   30.17R WCI  23
OSAGE BEACH    CLOUDY    39  28  65 W13G21    30.08R

$$
MOZ051-052-059>065-270100-
...EAST CENTRAL MISSOURI...

CITY           SKY/WX    TMP DP  RH WIND       PRES   REMARKS
ST LOUIS INTL  LGT SNOW  35  32  88 SE6       30.04R
6HR MIN TEMP:  34; 6HR MAX TEMP:  36; 6HR PCP:  0.16;

SPIRIT OF STL  LGT SNOW  33  32  96 CALM      30.03R FOG
6HR MIN TEMP:  32; 6HR MAX TEMP:  34; 6HR PCP:  0.14;

ST CHARLES     CLOUDY    33  32  96 E7        30.04R FOG     WCI  27
6HR MIN TEMP:  32; 6HR MAX TEMP:  33; 6HR PCP:  0.06;


$$
MOZ072>076-082>087-097>100-106>115-270100-
...SOUTH CENTRAL AND SOUTHEAST MISSOURI...

CITY           SKY/WX    TMP DP  RH WIND       PRES   REMARKS
CAPE GIRARDEAU CLOUDY    37  34  89 W10       30.05R WCI  30
6HR MIN TEMP:  37; 6HR MAX TEMP:  41; 6HR PCP:  0.11;

FARMINGTON     CLOUDY    36  32  87 W5        30.03R
6HR MIN TEMP:  34; 6HR MAX TEMP:  36; 6HR PCP:  0.09;

POPLAR BLUFF   MOCLDY    38  32  79 W7        30.07R
6HR MIN TEMP:  37; 6HR MAX TEMP:  41; 6HR PCP:  0.04;

WEST PLAINS    PTCLDY    38  30  73 W5        30.07R
6HR MIN TEMP:  36; 6HR MAX TEMP:  47; 6HR PCP:  0.01;


$$


USA.gov is the U.S. government's official web portal to all federal, state and local government web resources and services.